TimeCDT,TemperatureF,Dew PointF,Humidity,Sea Level PressureIn,VisibilityMPH,Wind Direction,Wind SpeedMPH,Gust SpeedMPH,PrecipitationIn,Events,Conditions,WindDirDegrees,DateUTC
12:15 AM,64.4,55.4,73,30.04,10.0,Calm,Calm,-,N/A,,Scattered Clouds,0,2013-10-11 05:15:00
12:35 AM,64.4,55.4,73,30.04,10.0,Calm,Calm,-,N/A,,Overcast,0,2013-10-11 05:35:00
12:55 AM,64.4,55.4,73,30.05,10.0,Calm,Calm,-,N/A,,Overcast,0,2013-10-11 05:55:00
1:15 AM,64.4,55.4,73,30.05,10.0,Calm,Calm,-,N/A,,Mostly Cloudy,0,2013-10-11 06:15:00
1:55 AM,62.6,53.6,72,30.05,10.0,Calm,Calm,-,N/A,,Clear,0,2013-10-11 06:55:00
2:15 AM,60.8,53.6,77,30.05,10.0,ESE,3.5,-,N/A,,Clear,110,2013-10-11 07:15:00
2:35 AM,60.8,53.6,77,30.05,10.0,Calm,Calm,-,N/A,,Clear,0,2013-10-11 07:35:00
2:55 AM,60.8,53.6,77,30.05,10.0,Calm,Calm,-,N/A,,Clear,0,2013-10-11 07:55:00
3:15 AM,60.8,53.6,77,30.04,10.0,Calm,Calm,-,N/A,,Clear,0,2013-10-11 08:15:00
3:35 AM,60.8,53.6,77,30.04,10.0,Calm,Calm,-,N/A,,Scattered Clouds,0,2013-10-11 08:35:00
3:55 AM,60.8,53.6,77,30.04,10.0,Calm,Calm,-,N/A,,Scattered Clouds,0,2013-10-11 08:55:00
4:15 AM,59.0,53.6,82,30.05,10.0,Calm,Calm,-,N/A,,Clear,0,2013-10-11 09:15:00
4:35 AM,60.8,53.6,77,30.05,10.0,Calm,Calm,-,N/A,,Clear,0,2013-10-11 09:35:00
4:55 AM,60.8,53.6,77,30.06,10.0,Calm,Calm,-,N/A,,Clear,0,2013-10-11 09:55:00
5:15 AM,59.0,53.6,82,30.07,10.0,Calm,Calm,-,N/A,,Clear,0,2013-10-11 10:15:00
5:35 AM,55.4,51.8,88,30.07,7.0,Calm,Calm,-,N/A,,Clear,0,2013-10-11 10:35:00
5:55 AM,55.4,51.8,88,30.07,7.0,Calm,Calm,-,N/A,,Clear,0,2013-10-11 10:55:00
6:15 AM,57.2,51.8,82,30.07,10.0,Calm,Calm,-,N/A,,Clear,0,2013-10-11 11:15:00
6:35 AM,57.2,51.8,82,30.08,10.0,Calm,Calm,-,N/A,,Clear,0,2013-10-11 11:35:00
6:55 AM,57.2,51.8,82,30.08,10.0,Calm,Calm,-,N/A,,Clear,0,2013-10-11 11:55:00
7:15 AM,57.2,51.8,82,30.07,7.0,Calm,Calm,-,N/A,,Scattered Clouds,0,2013-10-11 12:15:00
7:35 AM,57.2,51.8,82,30.08,7.0,Calm,Calm,-,N/A,,Scattered Clouds,0,2013-10-11 12:35:00
7:55 AM,59.0,53.6,82,30.07,7.0,Calm,Calm,-,N/A,,Mostly Cloudy,0,2013-10-11 12:55:00
8:15 AM,60.8,55.4,82,30.07,10.0,Calm,Calm,-,N/A,,Scattered Clouds,0,2013-10-11 13:15:00
8:35 AM,62.6,55.4,77,30.07,10.0,SE,4.6,-,N/A,,Clear,140,2013-10-11 13:35:00
8:55 AM,66.2,55.4,68,30.08,10.0,SSE,3.5,-,N/A,,Clear,160,2013-10-11 13:55:00
9:15 AM,68.0,53.6,60,30.08,10.0,SSE,4.6,-,N/A,,Clear,160,2013-10-11 14:15:00
9:35 AM,71.6,55.4,57,30.07,10.0,SSE,4.6,-,N/A,,Clear,160,2013-10-11 14:35:00
9:55 AM,71.6,53.6,53,30.07,10.0,South,6.9,-,N/A,,Clear,170,2013-10-11 14:55:00
10:15 AM,71.6,53.6,53,30.07,10.0,South,8.1,-,N/A,,Scattered Clouds,170,2013-10-11 15:15:00
10:35 AM,73.4,55.4,53,30.07,10.0,South,6.9,-,N/A,,Clear,190,2013-10-11 15:35:00
10:55 AM,75.2,55.4,50,30.07,10.0,South,8.1,-,N/A,,Clear,190,2013-10-11 15:55:00
11:15 AM,75.2,55.4,50,30.06,10.0,South,9.2,-,N/A,,Clear,180,2013-10-11 16:15:00
11:35 AM,77.0,55.4,47,30.06,10.0,South,10.4,-,N/A,,Clear,170,2013-10-11 16:35:00
11:55 AM,77.0,55.4,47,30.06,10.0,SSE,8.1,19.6,N/A,,Clear,150,2013-10-11 16:55:00
12:15 PM,78.8,55.4,44,30.05,10.0,South,9.2,-,N/A,,Clear,170,2013-10-11 17:15:00
12:35 PM,78.8,53.6,42,30.05,10.0,South,9.2,-,N/A,,Scattered Clouds,180,2013-10-11 17:35:00
12:55 PM,78.8,53.6,42,30.03,10.0,SSE,10.4,-,N/A,,Scattered Clouds,160,2013-10-11 17:55:00
1:15 PM,78.8,53.6,42,30.02,10.0,SSE,13.8,-,N/A,,Scattered Clouds,160,2013-10-11 18:15:00
1:35 PM,78.8,53.6,42,30.02,10.0,SSE,10.4,16.1,N/A,,Scattered Clouds,160,2013-10-11 18:35:00
1:55 PM,80.6,53.6,39,30.01,10.0,South,10.4,-,N/A,,Mostly Cloudy,180,2013-10-11 18:55:00
2:15 PM,80.6,51.8,37,30.00,10.0,South,11.5,-,N/A,,Scattered Clouds,180,2013-10-11 19:15:00
2:35 PM,78.8,53.6,42,30.00,10.0,SSE,8.1,-,N/A,,Clear,150,2013-10-11 19:35:00
2:55 PM,78.8,51.8,39,30.00,10.0,SSE,9.2,-,N/A,,Scattered Clouds,150,2013-10-11 19:55:00
3:15 PM,80.6,51.8,37,29.99,10.0,SE,11.5,-,N/A,,Scattered Clouds,140,2013-10-11 20:15:00
3:35 PM,80.6,51.8,37,29.99,10.0,SE,10.4,-,N/A,,Scattered Clouds,130,2013-10-11 20:35:00
3:55 PM,80.6,51.8,37,29.99,10.0,SSE,11.5,-,N/A,,Mostly Cloudy,150,2013-10-11 20:55:00
4:15 PM,80.6,51.8,37,29.98,10.0,SE,8.1,-,N/A,,Mostly Cloudy,140,2013-10-11 21:15:00
4:35 PM,80.6,50.0,34,29.98,10.0,South,10.4,-,N/A,,Scattered Clouds,180,2013-10-11 21:35:00
4:55 PM,78.8,51.8,39,29.98,10.0,SSE,10.4,-,N/A,,Clear,160,2013-10-11 21:55:00
5:15 PM,78.8,51.8,39,29.98,10.0,SSE,8.1,-,N/A,,Clear,160,2013-10-11 22:15:00
5:35 PM,78.8,51.8,39,29.98,7.0,South,5.8,-,N/A,,Clear,170,2013-10-11 22:35:00
5:55 PM,75.2,53.6,47,29.98,10.0,SSE,5.8,-,N/A,,Clear,160,2013-10-11 22:55:00
6:15 PM,73.4,55.4,53,29.97,5.0,SE,4.6,-,N/A,,Haze,140,2013-10-11 23:15:00
6:35 PM,71.6,53.6,53,29.98,5.0,SE,3.5,-,N/A,,Haze,140,2013-10-11 23:35:00
6:55 PM,71.6,53.6,53,29.98,10.0,SE,3.5,-,N/A,,Clear,140,2013-10-11 23:55:00
7:15 PM,69.8,53.6,56,29.98,10.0,Calm,Calm,-,N/A,,Clear,0,2013-10-12 00:15:00
7:35 PM,69.8,53.6,56,29.98,10.0,Calm,Calm,-,N/A,,Clear,0,2013-10-12 00:35:00
7:55 PM,68.0,55.4,64,29.99,10.0,Calm,Calm,-,N/A,,Clear,0,2013-10-12 00:55:00
8:15 PM,66.2,55.4,68,29.99,10.0,Calm,Calm,-,N/A,,Clear,0,2013-10-12 01:15:00
8:35 PM,66.2,55.4,68,29.99,10.0,Calm,Calm,-,N/A,,Clear,0,2013-10-12 01:35:00
8:55 PM,64.4,55.4,73,29.99,10.0,Calm,Calm,-,N/A,,Clear,0,2013-10-12 01:55:00
9:15 PM,62.6,55.4,77,30.00,10.0,Calm,Calm,-,N/A,,Clear,0,2013-10-12 02:15:00
9:35 PM,62.6,55.4,77,30.01,10.0,Calm,Calm,-,N/A,,Clear,0,2013-10-12 02:35:00
9:55 PM,62.6,55.4,77,30.01,10.0,Calm,Calm,-,N/A,,Clear,0,2013-10-12 02:55:00
10:15 PM,60.8,55.4,82,30.01,10.0,Calm,Calm,-,N/A,,Clear,0,2013-10-12 03:15:00
10:35 PM,60.8,55.4,82,30.01,10.0,Calm,Calm,-,N/A,,Clear,0,2013-10-12 03:35:00
10:55 PM,60.8,55.4,82,30.01,10.0,Calm,Calm,-,N/A,,Clear,0,2013-10-12 03:55:00
11:15 PM,60.8,55.4,82,30.01,10.0,Calm,Calm,-,N/A,,Clear,0,2013-10-12 04:15:00
11:35 PM,60.8,53.6,77,30.01,10.0,Calm,Calm,-,N/A,,Clear,0,2013-10-12 04:35:00
11:55 PM,60.8,55.4,82,30.01,10.0,Calm,Calm,-,N/A,,Clear,0,2013-10-12 04:55:00